Time,TemperatureF,DewpointF,PressureIn,WindDirection,WindDirectionDegrees,WindSpeedMPH,WindSpeedGustMPH,Humidity,HourlyPrecipIn,Conditions,Clouds,dailyrainin,SoftwareType,DateUTC
2013-02-27 00:10:00,36.5,31.5,30.29,SSE,157,0.0,0.0,82,0.00,,,0.02,open2300-1.11,2013-02-27 08:10:00,
2013-02-27 00:20:00,36.7,31.7,30.29,SSE,157,0.0,0.0,82,0.00,,,0.02,open2300-1.11,2013-02-27 08:20:00,
2013-02-27 00:30:00,36.5,31.5,30.30,ESE,112,0.0,0.0,82,0.00,,,0.02,open2300-1.11,2013-02-27 08:30:00,
2013-02-27 00:40:00,36.7,31.7,30.29,ESE,112,0.0,0.0,82,0.00,,,0.02,open2300-1.11,2013-02-27 08:40:00,
2013-02-27 00:50:00,36.7,31.7,30.29,ESE,112,0.0,0.0,82,0.00,,,0.02,open2300-1.11,2013-02-27 08:50:00,
2013-02-27 01:10:00,37.2,32.5,30.30,ESE,112,0.0,0.0,83,0.00,,,0.02,open2300-1.11,2013-02-27 09:10:00,
2013-02-27 01:20:00,37.6,32.9,30.30,ESE,112,0.0,0.0,83,0.00,,,0.02,open2300-1.11,2013-02-27 09:20:00,
2013-02-27 01:30:00,37.9,33.2,30.30,ESE,112,0.0,0.0,83,0.00,,,0.02,open2300-1.11,2013-02-27 09:30:00,
2013-02-27 01:40:00,38.1,33.4,30.30,ESE,112,0.0,0.0,83,0.00,,,0.02,open2300-1.11,2013-02-27 09:40:00,
2013-02-27 01:50:00,38.5,33.5,30.31,ESE,112,0.0,0.0,82,0.00,,,0.02,open2300-1.11,2013-02-27 09:50:00,
2013-02-27 02:10:00,38.8,33.8,30.30,ESE,112,0.0,0.0,82,0.00,,,0.02,open2300-1.11,2013-02-27 10:10:00,
2013-02-27 02:20:00,39.0,34.0,30.31,ESE,112,0.0,0.0,82,0.00,,,0.02,open2300-1.11,2013-02-27 10:20:00,
2013-02-27 02:30:00,39.0,34.0,30.31,ESE,112,0.0,0.0,82,0.00,,,0.02,open2300-1.11,2013-02-27 10:30:00,
2013-02-27 02:40:00,39.4,34.4,30.30,ESE,112,0.0,0.0,82,0.00,,,0.02,open2300-1.11,2013-02-27 10:40:00,
2013-02-27 02:50:00,39.6,34.5,30.30,ESE,112,0.0,0.0,82,0.00,,,0.02,open2300-1.11,2013-02-27 10:50:00,
2013-02-27 03:10:00,39.4,34.4,30.28,East,90,0.0,0.0,82,0.00,,,0.02,open2300-1.11,2013-02-27 11:10:00,
2013-02-27 03:20:00,39.0,34.3,30.28,ESE,112,0.0,0.0,83,0.00,,,0.02,open2300-1.11,2013-02-27 11:20:00,
2013-02-27 03:30:00,38.8,33.8,30.28,ESE,112,0.0,0.0,82,0.00,,,0.02,open2300-1.11,2013-02-27 11:30:00,
2013-02-27 03:40:00,38.3,33.3,30.29,SE,135,0.0,0.0,82,0.00,,,0.02,open2300-1.11,2013-02-27 11:40:00,
2013-02-27 03:50:00,37.9,32.9,30.29,SE,135,0.0,0.0,82,0.00,,,0.02,open2300-1.11,2013-02-27 11:50:00,
2013-02-27 04:10:00,37.9,33.2,30.29,SE,135,0.0,0.0,83,0.00,,,0.02,open2300-1.11,2013-02-27 12:10:00,
2013-02-27 04:20:00,37.9,33.2,30.29,SE,135,0.0,0.0,83,0.00,,,0.02,open2300-1.11,2013-02-27 12:20:00,
2013-02-27 04:30:00,38.1,33.4,30.28,SE,135,0.0,0.0,83,0.00,,,0.02,open2300-1.11,2013-02-27 12:30:00,
2013-02-27 04:40:00,38.1,33.4,30.29,SE,135,0.0,0.0,83,0.00,,,0.02,open2300-1.11,2013-02-27 12:40:00,
2013-02-27 04:50:00,38.1,33.4,30.28,SE,135,0.0,0.0,83,0.00,,,0.02,open2300-1.11,2013-02-27 12:50:00,
2013-02-27 05:10:00,37.8,33.0,30.28,SSE,157,0.0,0.0,83,0.00,,,0.02,open2300-1.11,2013-02-27 13:10:00,
2013-02-27 05:20:00,37.8,33.3,30.28,SSE,157,0.0,0.0,84,0.00,,,0.02,open2300-1.11,2013-02-27 13:20:00,
2013-02-27 05:30:00,37.9,33.5,30.28,SSE,157,0.0,0.0,84,0.00,,,0.02,open2300-1.11,2013-02-27 13:30:00,
2013-02-27 05:40:00,38.1,33.7,30.28,SSE,157,0.0,0.0,84,0.00,,,0.02,open2300-1.11,2013-02-27 13:40:00,
2013-02-27 05:50:00,38.5,34.3,30.29,East,90,0.0,0.0,85,0.00,,,0.02,open2300-1.11,2013-02-27 13:50:00,
2013-02-27 06:00:00,38.7,34.5,30.29,ESE,112,0.0,0.0,85,0.00,,,0.02,open2300-1.11,2013-02-27 14:00:00,
2013-02-27 06:10:00,38.8,34.4,30.30,ESE,112,0.0,0.0,84,0.00,,,0.02,open2300-1.11,2013-02-27 14:10:00,
2013-02-27 06:20:00,39.0,34.6,30.30,ESE,112,0.0,0.0,84,0.00,,,0.02,open2300-1.11,2013-02-27 14:20:00,
2013-02-27 06:30:00,39.2,34.6,30.30,ESE,112,0.0,0.0,84,0.00,,,0.02,open2300-1.11,2013-02-27 14:30:00,
2013-02-27 06:40:00,39.4,34.9,30.31,ESE,112,0.0,0.0,84,0.00,,,0.02,open2300-1.11,2013-02-27 14:40:00,
2013-02-27 06:50:00,39.6,35.1,30.31,ESE,112,0.0,0.0,84,0.00,,,0.02,open2300-1.11,2013-02-27 14:50:00,
2013-02-27 07:00:00,39.7,35.3,30.31,ESE,112,0.0,0.0,84,0.00,,,0.02,open2300-1.11,2013-02-27 15:00:00,
2013-02-27 07:10:00,39.9,35.4,30.32,ESE,112,0.0,0.0,84,0.00,,,0.02,open2300-1.11,2013-02-27 15:10:00,
2013-02-27 07:20:00,40.1,35.6,30.31,ESE,112,0.0,0.0,84,0.00,,,0.02,open2300-1.11,2013-02-27 15:20:00,
2013-02-27 07:30:00,40.6,36.1,30.32,ESE,112,0.0,0.0,84,0.00,,,0.02,open2300-1.11,2013-02-27 15:30:00,
2013-02-27 07:40:00,40.8,36.3,30.32,SE,135,0.0,4.7,84,0.00,,,0.02,open2300-1.11,2013-02-27 15:40:00,
2013-02-27 07:50:00,41.2,36.6,30.31,ESE,112,0.0,2.7,84,0.00,,,0.02,open2300-1.11,2013-02-27 15:50:00,
2013-02-27 08:00:00,41.4,36.5,30.32,ESE,112,1.6,3.1,83,0.00,,,0.02,open2300-1.11,2013-02-27 16:00:00,
2013-02-27 08:10:00,41.2,36.6,30.32,East,90,0.0,3.1,84,0.00,,,0.00,open2300-1.11,2013-02-27 16:10:00,
2013-02-27 08:20:00,41.4,36.8,30.32,ESE,112,0.0,2.9,84,0.00,,,0.00,open2300-1.11,2013-02-27 16:20:00,
2013-02-27 08:30:00,41.5,37.0,30.33,SE,135,0.0,0.0,84,0.00,,,0.00,open2300-1.11,2013-02-27 16:30:00,
2013-02-27 08:40:00,41.9,37.4,30.33,ESE,112,0.0,0.0,84,0.00,,,0.00,open2300-1.11,2013-02-27 16:40:00,
2013-02-27 08:50:00,42.4,37.9,30.33,ESE,112,0.0,0.0,84,0.00,,,0.00,open2300-1.11,2013-02-27 16:50:00,
2013-02-27 09:00:00,43.2,38.3,30.33,ESE,112,0.0,0.0,83,0.00,,,0.00,open2300-1.11,2013-02-27 17:00:00,
2013-02-27 09:10:00,43.7,38.5,30.33,ESE,112,0.0,0.0,82,0.00,,,0.00,open2300-1.11,2013-02-27 17:10:00,
2013-02-27 09:20:00,44.1,38.9,30.33,SSE,157,0.0,0.0,82,0.00,,,0.00,open2300-1.11,2013-02-27 17:20:00,
2013-02-27 09:30:00,44.4,39.0,30.33,South,180,0.0,0.0,81,0.00,,,0.00,open2300-1.11,2013-02-27 17:30:00,
2013-02-27 09:40:00,45.0,39.5,30.33,South,180,0.0,4.0,81,0.00,,,0.00,open2300-1.11,2013-02-27 17:40:00,
2013-02-27 09:50:00,45.5,40.0,30.33,SSE,157,0.0,6.9,81,0.00,,,0.00,open2300-1.11,2013-02-27 17:50:00,
2013-02-27 10:00:00,46.2,40.5,30.32,ESE,112,0.0,6.0,80,0.00,,,0.00,open2300-1.11,2013-02-27 18:00:00,
2013-02-27 10:10:00,46.6,40.8,30.31,South,180,0.0,6.9,80,0.00,,,0.00,open2300-1.11,2013-02-27 18:10:00,
2013-02-27 10:20:00,46.9,41.1,30.31,SSE,157,0.0,8.3,80,0.00,,,0.00,open2300-1.11,2013-02-27 18:20:00,
2013-02-27 10:30:00,47.8,41.6,30.31,SE,135,5.6,8.5,79,0.00,,,0.00,open2300-1.11,2013-02-27 18:30:00,
2013-02-27 10:40:00,48.6,41.6,30.31,SE,135,3.8,8.9,77,0.00,,,0.00,open2300-1.11,2013-02-27 18:40:00,
2013-02-27 10:50:00,48.9,42.0,30.31,SE,135,4.5,7.8,77,0.00,,,0.00,open2300-1.11,2013-02-27 18:50:00,
2013-02-27 11:00:00,49.1,41.8,30.31,SE,135,0.0,7.2,76,0.00,,,0.00,open2300-1.11,2013-02-27 19:00:00,
2013-02-27 11:10:00,49.3,42.0,30.31,SE,135,2.7,7.2,76,0.00,,,0.00,open2300-1.11,2013-02-27 19:10:00,
2013-02-27 11:20:00,49.6,42.0,30.31,SSW,202,5.6,6.9,75,0.00,,,0.00,open2300-1.11,2013-02-27 19:20:00,
2013-02-27 11:30:00,50.2,42.2,30.32,SSW,202,2.7,5.6,74,0.00,,,0.00,open2300-1.11,2013-02-27 19:30:00,
2013-02-27 11:40:00,50.7,42.7,30.32,SSW,202,0.0,6.0,74,0.00,,,0.00,open2300-1.11,2013-02-27 19:40:00,
2013-02-27 11:50:00,51.1,42.4,30.32,South,180,1.3,4.0,72,0.00,,,0.00,open2300-1.11,2013-02-27 19:50:00,
2013-02-27 12:00:00,51.8,43.1,30.33,South,180,0.0,5.6,72,0.00,,,0.00,open2300-1.11,2013-02-27 20:00:00,
2013-02-27 12:10:00,52.3,42.9,30.32,South,180,0.0,1.6,70,0.00,,,0.00,open2300-1.11,2013-02-27 20:10:00,
2013-02-27 12:20:00,52.3,42.9,30.32,South,180,0.0,0.0,70,0.00,,,0.00,open2300-1.11,2013-02-27 20:20:00,
2013-02-27 12:30:00,52.5,43.1,30.32,SSW,202,0.0,1.8,70,0.00,,,0.00,open2300-1.11,2013-02-27 20:30:00,
2013-02-27 12:40:00,52.3,42.5,30.32,SSW,202,1.8,5.1,69,0.00,,,0.00,open2300-1.11,2013-02-27 20:40:00,
2013-02-27 12:50:00,51.6,42.3,30.31,SW,225,0.0,4.5,70,0.00,,,0.00,open2300-1.11,2013-02-27 20:50:00,
2013-02-27 13:00:00,51.8,42.8,30.31,South,180,0.0,2.0,71,0.00,,,0.00,open2300-1.11,2013-02-27 21:00:00,
2013-02-27 13:10:00,52.0,42.6,30.31,South,180,0.0,1.1,70,0.00,,,0.00,open2300-1.11,2013-02-27 21:10:00,
2013-02-27 13:20:00,52.0,42.6,30.31,South,180,0.0,3.4,70,0.00,,,0.00,open2300-1.11,2013-02-27 21:20:00,
2013-02-27 13:30:00,52.2,42.8,30.31,SSW,202,0.0,1.8,70,0.00,,,0.00,open2300-1.11,2013-02-27 21:30:00,
2013-02-27 13:40:00,52.2,42.3,30.31,South,180,0.0,7.2,69,0.00,,,0.00,open2300-1.11,2013-02-27 21:40:00,
2013-02-27 13:50:00,52.2,42.3,30.31,SSE,157,0.0,3.8,69,0.00,,,0.00,open2300-1.11,2013-02-27 21:50:00,
2013-02-27 14:00:00,52.3,42.5,30.31,South,180,0.0,2.0,69,0.00,,,0.00,open2300-1.11,2013-02-27 22:00:00,
2013-02-27 14:10:00,52.3,42.5,30.30,SE,135,0.0,2.7,69,0.00,,,0.00,open2300-1.11,2013-02-27 22:10:00,
2013-02-27 14:20:00,52.3,42.5,30.30,SE,135,0.0,0.0,69,0.00,,,0.00,open2300-1.11,2013-02-27 22:20:00,
2013-02-27 14:30:00,52.3,42.9,30.30,SSE,157,0.0,3.8,70,0.00,,,0.00,open2300-1.11,2013-02-27 22:30:00,
2013-02-27 14:40:00,52.9,43.0,30.29,SSE,157,0.0,3.6,69,0.00,,,0.00,open2300-1.11,2013-02-27 22:40:00,
2013-02-27 14:50:00,52.9,43.0,30.30,South,180,0.0,4.9,69,0.00,,,0.00,open2300-1.11,2013-02-27 22:50:00,
2013-02-27 15:00:00,52.9,43.0,30.30,SE,135,0.0,3.1,69,0.00,,,0.00,open2300-1.11,2013-02-27 23:00:00,
2013-02-27 15:10:00,52.9,43.0,30.29,SSE,157,0.0,2.0,69,0.00,,,0.00,open2300-1.11,2013-02-27 23:10:00,
2013-02-27 15:20:00,52.9,43.0,30.29,SSE,157,0.0,4.5,69,0.00,,,0.00,open2300-1.11,2013-02-27 23:20:00,
2013-02-27 15:30:00,52.7,42.8,30.29,ESE,112,2.0,2.2,69,0.00,,,0.00,open2300-1.11,2013-02-27 23:30:00,
2013-02-27 15:40:00,52.2,42.8,30.28,SE,135,0.0,4.0,70,0.00,,,0.00,open2300-1.11,2013-02-27 23:40:00,
2013-02-27 15:50:00,52.2,42.8,30.29,SE,135,0.0,0.0,70,0.00,,,0.00,open2300-1.11,2013-02-27 23:50:00,
2013-02-27 16:00:00,51.8,42.8,30.28,ESE,112,0.0,0.0,71,0.00,,,0.00,open2300-1.11,2013-02-28 00:00:00,
2013-02-27 16:10:00,51.6,42.6,30.28,ESE,112,0.0,0.0,71,0.00,,,0.00,open2300-1.11,2013-02-28 00:10:00,
2013-02-27 16:20:00,51.4,42.8,30.28,SE,135,0.0,0.0,72,0.00,,,0.00,open2300-1.11,2013-02-28 00:20:00,
2013-02-27 16:30:00,51.3,42.6,30.28,ESE,112,0.0,3.6,72,0.00,,,0.00,open2300-1.11,2013-02-28 00:30:00,
2013-02-27 16:40:00,51.1,42.4,30.28,SSE,157,0.0,0.0,72,0.00,,,0.00,open2300-1.11,2013-02-28 00:40:00,
2013-02-27 16:50:00,50.9,42.2,30.28,SE,135,0.0,0.0,72,0.00,,,0.00,open2300-1.11,2013-02-28 00:50:00,
2013-02-27 17:00:00,50.7,42.0,30.28,SE,135,0.0,0.0,72,0.00,,,0.00,open2300-1.11,2013-02-28 01:00:00,
2013-02-27 17:10:00,50.7,42.4,30.27,SE,135,0.0,0.0,73,0.00,,,0.00,open2300-1.11,2013-02-28 01:10:00,
2013-02-27 17:20:00,50.7,42.4,30.27,SE,135,0.0,0.0,73,0.00,,,0.00,open2300-1.11,2013-02-28 01:20:00,
2013-02-27 17:30:00,50.7,42.4,30.27,SE,135,0.0,0.0,73,0.00,,,0.00,open2300-1.11,2013-02-28 01:30:00,
2013-02-27 17:40:00,50.5,42.2,30.27,SE,135,0.0,0.0,73,0.00,,,0.00,open2300-1.11,2013-02-28 01:40:00,
2013-02-27 17:50:00,50.4,42.4,30.27,East,90,0.0,0.0,74,0.00,,,0.00,open2300-1.11,2013-02-28 01:50:00,
2013-02-27 18:00:00,49.8,41.8,30.28,East,90,0.0,0.0,74,0.00,,,0.00,open2300-1.11,2013-02-28 02:00:00,
2013-02-27 18:10:00,49.6,41.7,30.28,East,90,0.0,0.0,74,0.00,,,0.00,open2300-1.11,2013-02-28 02:10:00,
2013-02-27 18:20:00,49.6,41.7,30.28,East,90,0.0,0.0,74,0.00,,,0.00,open2300-1.11,2013-02-28 02:20:00,
2013-02-27 18:30:00,49.3,42.0,30.28,East,90,0.0,0.0,76,0.00,,,0.00,open2300-1.11,2013-02-28 02:30:00,
2013-02-27 18:40:00,48.9,42.3,30.27,East,90,0.0,0.0,78,0.00,,,0.00,open2300-1.11,2013-02-28 02:40:00,
2013-02-27 18:50:00,48.7,42.1,30.28,ESE,112,0.0,0.0,78,0.00,,,0.00,open2300-1.11,2013-02-28 02:50:00,
2013-02-27 19:00:00,48.6,41.9,30.28,SE,135,0.0,0.0,78,0.00,,,0.00,open2300-1.11,2013-02-28 03:00:00,
2013-02-27 19:10:00,48.2,42.3,30.27,SE,135,0.0,0.0,80,0.02,,,0.02,open2300-1.11,2013-02-28 03:10:00,
2013-02-27 19:20:00,48.0,42.4,30.26,ESE,112,0.0,0.0,81,0.02,,,0.02,open2300-1.11,2013-02-28 03:20:00,
2013-02-27 19:30:00,47.8,42.2,30.26,ESE,112,0.0,0.0,81,0.02,,,0.02,open2300-1.11,2013-02-28 03:30:00,
2013-02-27 19:40:00,47.7,42.1,30.26,SE,135,0.0,0.0,81,0.02,,,0.02,open2300-1.11,2013-02-28 03:40:00,
2013-02-27 19:50:00,47.5,41.9,30.27,SE,135,0.0,0.0,81,0.02,,,0.02,open2300-1.11,2013-02-28 03:50:00,
2013-02-27 20:00:00,47.5,41.9,30.26,SE,135,0.0,0.0,81,0.02,,,0.02,open2300-1.11,2013-02-28 04:00:00,
2013-02-27 20:10:00,47.3,42.1,30.26,SE,135,0.0,0.0,82,0.00,,,0.02,open2300-1.11,2013-02-28 04:10:00,
2013-02-27 20:20:00,47.1,41.9,30.26,SSE,157,0.0,0.0,82,0.00,,,0.02,open2300-1.11,2013-02-28 04:20:00,
2013-02-27 20:30:00,47.1,42.2,30.25,ESE,112,0.0,3.1,83,0.00,,,0.02,open2300-1.11,2013-02-28 04:30:00,
2013-02-27 20:40:00,47.1,42.2,30.26,SE,135,1.3,2.2,83,0.00,,,0.02,open2300-1.11,2013-02-28 04:40:00,
2013-02-27 20:50:00,47.1,42.2,30.26,SE,135,0.0,1.8,83,0.00,,,0.02,open2300-1.11,2013-02-28 04:50:00,
2013-02-27 21:00:00,46.9,42.0,30.26,SE,135,0.0,5.6,83,0.00,,,0.02,open2300-1.11,2013-02-28 05:00:00,
2013-02-27 21:10:00,46.9,42.0,30.26,SE,135,0.0,2.2,83,0.00,,,0.02,open2300-1.11,2013-02-28 05:10:00,
2013-02-27 21:20:00,46.9,42.0,30.26,SE,135,0.0,7.4,83,0.00,,,0.02,open2300-1.11,2013-02-28 05:20:00,